Lapse_Rate
7.2 7.2 7.0 6.3 5.1 4.8 4.2 4.3 4.4 4.8 4.9 5.0 4.6 4.6 5.2 4.8 5.1 5.0 5.1 5.2 5.0 5.5
7.3 7.2 7.2 7.0 6.0 5.2 4.5 4.4 4.3 4.7 5.0 5.0 5.1 4.8 5.3 4.7 5.0 5.0 5.2 5.3 5.3 5.2
7.4 7.2 7.2 7.1 6.7 5.6 4.9 4.6 4.6 4.8 4.5 5.4 5.3 4.9 4.9 5.0 4.8 5.1 5.6 5.4 5.2 5.3
7.2 7.0 6.9 6.9 6.9 6.5 5.6 5.5 5.0 5.1 4.6 4.8 5.8 5.1 5.0 5.3 4.9 5.4 5.7 5.5 5.3 5.4
7.1 7.1 7.0 6.7 6.5 6.6 5.9 5.2 5.5 5.2 5.2 4.9 5.0 5.5 5.3 5.6 5.7 5.2 5.1 5.7 5.3 5.4
6.9 6.9 6.9 6.8 6.4 6.4 5.8 5.1 4.8 4.6 4.8 4.9 4.6 5.5 5.3 5.7 5.1 5.5 5.4 5.6 5.7 5.6
6.7 6.7 6.8 6.8 6.5 6.3 6.0 5.4 4.5 4.4 4.3 4.2 4.6 4.7 5.3 5.6 5.2 5.5 5.3 5.5 5.6 5.5
6.4 6.5 6.7 6.6 6.4 6.2 6.0 5.2 4.8 4.8 4.5 4.4 4.7 4.7 5.0 4.9 5.3 5.5 5.9 5.6 5.9 6.0
6.4 6.3 6.5 6.4 6.2 6.1 5.9 5.4 4.6 4.7 4.9 4.9 4.9 4.4 4.7 4.9 4.5 5.1 5.5 6.1 5.9 5.8
6.2 6.3 6.3 6.3 6.2 5.9 5.9 5.4 4.3 4.5 4.8 4.9 4.7 4.3 4.5 4.6 4.7 5.3 5.6 5.7 5.7 5.6
6.1 6.1 6.0 5.9 5.9 5.8 5.7 5.5 4.6 4.4 4.5 4.9 4.7 4.6 4.3 4.5 4.3 5.0 6.0 5.9 5.6 5.6
6.2 6.1 6.0 5.8 5.7 5.8 5.7 5.4 4.8 3.9 4.3 4.3 4.6 4.4 4.3 4.3 4.2 4.6 5.2 5.4 5.5 5.7
6.2 6.1 6.0 5.9 5.7 5.7 5.6 5.4 5.2 3.8 3.9 3.8 4.0 4.1 4.1 4.5 4.3 4.3 4.5 4.8 5.1 5.6
6.2 6.2 6.0 5.8 5.7 5.7 5.3 5.3 5.1 4.1 3.7 3.5 3.6 3.7 4.2 4.3 4.3 4.3 4.3 4.6 4.8 5.4
Wind_Speed
16 11 12 14 13 12 12 13 20 18 21 19 19 14 15 13 11 13 11 14 11 8
15 16 14 17 13 12 14 12 17 21 17 17 16 15 16 11 13 12 12 13 12 10
16 15 15 15 16 17 16 18 17 18 16 18 16 15 14 13 15 13 11 10 13 12
15 15 15 14 15 16 18 16 16 17 18 18 16 15 14 16 17 16 15 14 15 14
15 15 15 15 17 21 17 18 16 16 17 17 16 15 15 17 15 18 16 16 17 16
14 15 16 16 17 17 18 17 17 16 16 16 17 16 16 15 16 18 17 18 19 17
14 14 15 16 16 16 16 17 17 16 17 16 16 15 15 15 16 17 18 18 19 19
14 14 14 15 16 16 16 16 16 17 17 16 14 11 12 13 15 14 18 17 18 19
13 14 14 15 16 16 17 17 18 17 16 17 12 23 24 15 13 12 16 16 16 16
12 13 14 15 16 16 17 18 18 17 17 17 18 25 22 17 9 9 10 15 15 14
11 12 14 14 15 17 15 16 15 16 17 17 15 28 15 13 7 5 4 10 15 17
11 11 12 13 15 15 15 16 16 15 17 17 17 30 18 11 4 4 4 5 8 14
11 11 11 13 14 13 14 14 13 16 16 21 17 29 30 14 5 4 2 3 5 15
12 11 11 12 12 12 13 14 14 15 14 15 19 20 32 26 5 4 4 2 1 3
Wind_Direction
326 324 318 320 317 309 312 310 314 313 309 308 303 301 296 299 215 198 193 192 189 180
326 322 320 316 311 310 308 306 307 305 300 301 294 301 297 290 236 196 188 189 181 176
320 320 318 317 315 313 309 308 307 308 303 298 299 303 300 284 249 191 186 181 175 174
321 320 319 317 316 313 309 307 306 304 302 296 303 300 297 278 259 195 184 178 177 171
320 320 319 319 319 317 311 308 304 302 298 300 298 295 286 280 293 196 186 177 175 170
319 321 317 317 318 316 313 309 307 304 298 299 293 290 285 288 296 203 188 181 175 171
320 319 316 313 313 315 312 308 308 303 297 291 292 293 291 297 306 209 190 185 178 175
319 317 315 315 316 317 313 311 308 304 305 307 302 293 296 297 294 233 189 184 182 180
318 320 319 318 318 321 320 321 319 317 313 314 308 298 294 299 285 271 187 180 182 181
319 321 320 320 320 325 327 324 319 320 321 321 310 310 307 296 279 296 201 181 179 176
321 319 320 322 322 323 326 324 319 321 327 322 316 328 317 315 299 323 306 197 182 179
317 316 320 321 325 321 325 323 328 327 327 331 330 344 0 360 340 9 344 325 194 179
312 310 314 317 322 319 317 319 327 330 335 334 336 342 358 5 355 331 320 324 330 190
314 313 312 322 320 321 319 322 327 336 336 336 343 344 352 359 342 343 327 288 258 260